,,,PA_Meas_PMT16A,,PR_Meas_QMR101_102,,RH_Meas_QMH101,,SR_Meas_QMS101,,TA_Meas_QMH101,,GenWind,,GenWind,
date,time,status,PA,status,PR,status,RH,status,SR,status,TA,status,DirAvg,status,SpdAvg,
2012-01-20, 00:00:04,VALID,1002.35,VALID,0,VALID,93.4996,VALID,0,VALID,24.0929,VALID,297,VALID,1.08164,
2012-01-20, 00:01:04,VALID,1002.38,VALID,0.5,VALID,93.7055,VALID,0,VALID,24.0716,VALID,44,VALID,0.364453,
2012-01-20, 00:02:04,VALID,1002.33,VALID,0,VALID,93.7437,VALID,0,VALID,24.0326,VALID,348,VALID,1.79414,
2012-01-20, 00:03:04,VALID,1002.36,VALID,0.5,VALID,93.7589,VALID,0,VALID,24.0345,VALID,313,VALID,1.52695,
2012-01-20, 00:04:04,VALID,1002.42,VALID,0,VALID,93.881,VALID,0,VALID,24.0539,VALID,280,VALID,1.65898,
2012-01-20, 00:05:04,VALID,1002.37,VALID,0,VALID,93.942,VALID,0,VALID,24.0326,VALID,284,VALID,1.63398,
2012-01-20, 00:06:04,VALID,1002.39,VALID,0.5,VALID,93.9344,VALID,0,VALID,24.0345,VALID,288,VALID,1.91406,
2012-01-20, 00:07:04,VALID,1002.35,VALID,1,VALID,94.0031,VALID,0,VALID,24.0132,VALID,299,VALID,1.76484,
2012-01-20, 00:08:04,VALID,1002.35,VALID,0.5,VALID,93.9268,VALID,0,VALID,23.9548,VALID,329,VALID,1.19453,
2012-01-20, 00:09:04,VALID,1002.33,VALID,1,VALID,94.1404,VALID,0,VALID,23.9159,VALID,309,VALID,1.42813,
2012-01-20, 00:10:04,VALID,1002.33,VALID,0.5,VALID,94.1099,VALID,0,VALID,23.8575,VALID,292,VALID,2.25938,
2012-01-20, 00:11:04,VALID,1002.3,VALID,0.5,VALID,94.0946,VALID,0,VALID,23.7991,VALID,310,VALID,2.20625,
2012-01-20, 00:12:04,VALID,1002.28,VALID,1,VALID,94.0565,VALID,0,VALID,23.7212,VALID,290,VALID,1.15352,
2012-01-20, 00:13:04,VALID,1002.22,VALID,0.5,VALID,94.3921,VALID,0,VALID,23.7017,VALID,316,VALID,0.979688,
2012-01-20, 00:14:04,VALID,1002.14,VALID,0,VALID,94.4303,VALID,0,VALID,23.6628,VALID,335,VALID,0.528516,
2012-01-20, 00:15:04,VALID,1002.14,VALID,0.5,VALID,94.3998,VALID,0,VALID,23.6044,VALID,295,VALID,1.26953,
2012-01-20, 00:16:04,VALID,1002.12,VALID,0.5,VALID,94.5676,VALID,0.0815089,VALID,23.6062,VALID,259,VALID,1.00898,
2012-01-20, 00:17:04,VALID,1002.1,VALID,0,VALID,94.682,VALID,0,VALID,23.5655,VALID,291,VALID,0.826172,
2012-01-20, 00:18:04,VALID,1002.09,VALID,0.5,VALID,94.7736,VALID,0,VALID,23.5443,VALID,207,VALID,0.849219,
2012-01-20, 00:19:04,VALID,1002.06,VALID,0,VALID,94.8117,VALID,0,VALID,23.5637,VALID,294,VALID,0.79375,
2012-01-20, 00:20:04,VALID,1002.03,VALID,0,VALID,94.827,VALID,0,VALID,23.5655,VALID,310,VALID,1.3207,
2012-01-20, 00:21:04,VALID,1002.04,VALID,0,VALID,94.7812,VALID,0,VALID,23.5266,VALID,307,VALID,0.939844,
2012-01-20, 00:22:04,VALID,1002.03,VALID,0.5,VALID,94.8422,VALID,0.0815089,VALID,23.5478,VALID,336,VALID,0.595703,
2012-01-20, 00:23:04,VALID,1001.97,VALID,0,VALID,94.9414,VALID,0,VALID,23.5266,VALID,316,VALID,1.0418,
2012-01-20, 00:24:04,VALID,1002,VALID,0,VALID,94.9948,VALID,0,VALID,23.5868,VALID,298,VALID,0.564062,
2012-01-20, 00:25:04,VALID,1001.95,VALID,0.5,VALID,95.0177,VALID,0,VALID,23.546,VALID,311,VALID,0.943359,
2012-01-20, 00:26:04,VALID,1001.93,VALID,0,VALID,94.9948,VALID,0,VALID,23.5478,VALID,321,VALID,0.947656,
2012-01-20, 00:27:04,VALID,1001.9,VALID,0,VALID,94.9948,VALID,0,VALID,23.5089,VALID,320,VALID,1.20273,
2012-01-20, 00:28:04,VALID,1001.88,VALID,0,VALID,95.0406,VALID,0,VALID,23.5284,VALID,317,VALID,0.598828,
2012-01-20, 00:29:04,VALID,1001.9,VALID,0.5,VALID,95.1016,VALID,0,VALID,23.5478,VALID,313,VALID,0.573438,
2012-01-20, 00:30:04,VALID,1001.83,VALID,0,VALID,95.033,VALID,0.0815089,VALID,23.5053,VALID,296,VALID,0.545703,
2012-01-20, 00:31:04,VALID,1001.85,VALID,0,VALID,95.0864,VALID,0.0815089,VALID,23.546,VALID,276,VALID,0.572266,
2012-01-20, 00:32:04,VALID,1001.81,VALID,0,VALID,95.1169,VALID,0.0815089,VALID,23.5248,VALID,302,VALID,0.195313,
2012-01-20, 00:33:04,VALID,1001.78,VALID,0,VALID,95.155,VALID,0.0815089,VALID,23.5655,VALID,305,VALID,0.290625,
2012-01-20, 00:34:04,VALID,1001.74,VALID,0,VALID,95.155,VALID,0.0815089,VALID,23.5248,VALID,305,VALID,0.416016,
2012-01-20, 00:35:04,VALID,1001.68,VALID,0,VALID,95.1779,VALID,0.0815089,VALID,23.5655,VALID,312,VALID,0.470313,
2012-01-20, 00:36:04,VALID,1001.7,VALID,0.5,VALID,95.2237,VALID,0.0815089,VALID,23.5655,VALID,338,VALID,0.645703,
2012-01-20, 00:37:04,VALID,1001.64,VALID,0,VALID,95.2237,VALID,0.0815089,VALID,23.5655,VALID,360,VALID,0.675781,
2012-01-20, 00:38:04,VALID,1001.62,VALID,0,VALID,95.2542,VALID,0.0815089,VALID,23.585,VALID,360,VALID,0.499219,
2012-01-20, 00:39:04,VALID,1001.59,VALID,0,VALID,95.2389,VALID,0,VALID,23.5655,VALID,11,VALID,0.624219,
2012-01-20, 00:40:04,VALID,1001.56,VALID,0,VALID,95.2389,VALID,0.0815089,VALID,23.5655,VALID,11,VALID,0.592188,
2012-01-20, 00:41:04,VALID,1001.55,VALID,0,VALID,95.2084,VALID,0.0815089,VALID,23.5443,VALID,11,VALID,0.564453,
2012-01-20, 00:42:04,VALID,1001.5,VALID,0,VALID,95.2466,VALID,0.0815089,VALID,23.5248,VALID,11,VALID,0.574609,
2012-01-20, 00:43:04,VALID,1001.52,VALID,0,VALID,95.2847,VALID,0.0815089,VALID,23.5655,VALID,1,VALID,0.629687,
2012-01-20, 00:44:04,VALID,1001.51,VALID,0,VALID,95.2923,VALID,0.0815089,VALID,23.5655,VALID,1,VALID,0.632813,
2012-01-20, 00:45:04,VALID,1001.45,VALID,0,VALID,95.2847,VALID,0,VALID,23.5266,VALID,1,VALID,0.572656,
2012-01-20, 00:46:04,VALID,1001.43,VALID,0,VALID,95.3305,VALID,0,VALID,23.5673,VALID,1,VALID,0.260547,
2012-01-20, 00:47:04,VALID,1001.44,VALID,0,VALID,95.3229,VALID,0,VALID,23.5655,VALID,1,VALID,0.319531,
2012-01-20, 00:48:04,VALID,1001.44,VALID,0,VALID,95.361,VALID,0,VALID,23.6062,VALID,1,VALID,0.228906,
2012-01-20, 00:49:04,VALID,1001.41,VALID,0,VALID,95.3915,VALID,0,VALID,23.6275,VALID,1,VALID,0.00664063,
2012-01-20, 00:50:04,VALID,1001.39,VALID,0,VALID,95.3686,VALID,0,VALID,23.6062,VALID,1,VALID,0,
2012-01-20, 00:51:04,VALID,1001.39,VALID,0,VALID,95.3763,VALID,0,VALID,23.6257,VALID,355,VALID,0.362109,
2012-01-20, 00:52:04,VALID,1001.37,VALID,0,VALID,95.3991,VALID,0,VALID,23.6257,VALID,355,VALID,0.527734,
2012-01-20, 00:53:04,VALID,1001.34,VALID,0,VALID,95.422,VALID,0,VALID,23.6452,VALID,355,VALID,0.153516,
2012-01-20, 00:54:04,VALID,1001.36,VALID,0,VALID,95.4297,VALID,0,VALID,23.6646,VALID,355,VALID,0.428516,
2012-01-20, 00:55:04,VALID,1001.35,VALID,0,VALID,95.4373,VALID,0,VALID,23.6841,VALID,287,VALID,0.678906,
2012-01-20, 00:56:04,VALID,1001.34,VALID,0,VALID,95.3839,VALID,0,VALID,23.6646,VALID,277,VALID,0.585156,
2012-01-20, 00:57:04,VALID,1001.38,VALID,0,VALID,95.4373,VALID,0,VALID,23.6841,VALID,277,VALID,0.0410156,
2012-01-20, 00:58:04,VALID,1001.38,VALID,0,VALID,95.4526,VALID,0,VALID,23.7035,VALID,313,VALID,0.470313,
2012-01-20, 00:59:04,VALID,1001.37,VALID,0,VALID,95.3991,VALID,0,VALID,23.6823,VALID,350,VALID,0.839453,
2012-01-20, 01:00:04,VALID,1001.39,VALID,0,VALID,95.361,VALID,0,VALID,23.6628,VALID,348,VALID,0.912891,
2012-01-20, 01:01:04,VALID,1001.35,VALID,0,VALID,95.3305,VALID,0,VALID,23.6434,VALID,333,VALID,1.27734,
2012-01-20, 01:02:04,VALID,1001.35,VALID,0,VALID,95.2923,VALID,0,VALID,23.6044,VALID,356,VALID,0.775,
2012-01-20, 01:03:04,VALID,1001.35,VALID,0,VALID,95.3152,VALID,0,VALID,23.5832,VALID,348,VALID,1.03984,
2012-01-20, 01:04:04,VALID,1001.32,VALID,0,VALID,95.3,VALID,0,VALID,23.585,VALID,356,VALID,0.193359,
2012-01-20, 01:05:04,VALID,1001.35,VALID,0,VALID,95.3305,VALID,0.0815089,VALID,23.6239,VALID,354,VALID,0.825781,
2012-01-20, 01:06:04,VALID,1001.31,VALID,0,VALID,95.3229,VALID,0,VALID,23.6452,VALID,333,VALID,0.573438,
2012-01-20, 01:07:04,VALID,1001.31,VALID,0,VALID,95.3305,VALID,0,VALID,23.6239,VALID,335,VALID,0.374219,
2012-01-20, 01:08:04,VALID,1001.26,VALID,0,VALID,95.2847,VALID,0,VALID,23.6257,VALID,321,VALID,1.04922,
2012-01-20, 01:09:04,VALID,1001.27,VALID,0,VALID,95.3152,VALID,0,VALID,23.6044,VALID,271,VALID,0.21875,
2012-01-20, 01:10:04,VALID,1001.24,VALID,0,VALID,95.361,VALID,0,VALID,23.6239,VALID,274,VALID,0.147656,
2012-01-20, 01:11:04,VALID,1001.2,VALID,0,VALID,95.3152,VALID,0,VALID,23.6044,VALID,348,VALID,0.958203,
2012-01-20, 01:12:04,VALID,1001.16,VALID,0,VALID,95.2923,VALID,0,VALID,23.6044,VALID,351,VALID,0.469922,
2012-01-20, 01:13:04,VALID,1001.12,VALID,0,VALID,95.3381,VALID,0,VALID,23.585,VALID,294,VALID,0.204297,
2012-01-20, 01:14:04,VALID,1001.11,VALID,0,VALID,95.3381,VALID,0,VALID,23.6044,VALID,347,VALID,0.0628906,
2012-01-20, 01:15:04,VALID,1001.09,VALID,0,VALID,95.361,VALID,0,VALID,23.6239,VALID,297,VALID,0.478125,
2012-01-20, 01:16:04,VALID,1001.07,VALID,0,VALID,95.3839,VALID,0,VALID,23.6452,VALID,289,VALID,0.507422,
2012-01-20, 01:17:04,VALID,1001.08,VALID,0,VALID,95.3457,VALID,0,VALID,23.6452,VALID,359,VALID,0.348047,
2012-01-20, 01:18:04,VALID,1001.05,VALID,0,VALID,95.3381,VALID,0.0815089,VALID,23.6044,VALID,8,VALID,0.738672,
2012-01-20, 01:19:04,VALID,1001.05,VALID,0,VALID,95.3229,VALID,0,VALID,23.585,VALID,340,VALID,0.510547,
2012-01-20, 01:20:04,VALID,1001.06,VALID,0,VALID,95.3,VALID,0,VALID,23.5655,VALID,352,VALID,1.45938,
2012-01-20, 01:21:04,VALID,1001.04,VALID,0,VALID,95.2542,VALID,0,VALID,23.5673,VALID,342,VALID,1.06172,
2012-01-20, 01:22:04,VALID,1001.03,VALID,0,VALID,95.2389,VALID,0,VALID,23.5673,VALID,356,VALID,1.19141,
2012-01-20, 01:23:04,VALID,1001.03,VALID,0,VALID,95.2389,VALID,0,VALID,23.546,VALID,351,VALID,1.31797,
2012-01-20, 01:24:04,VALID,1000.97,VALID,0,VALID,95.2084,VALID,0,VALID,23.546,VALID,354,VALID,1.20313,
2012-01-20, 01:25:04,VALID,1001.01,VALID,0,VALID,95.2161,VALID,0,VALID,23.5071,VALID,338,VALID,1.10391,
2012-01-20, 01:26:04,VALID,1001.01,VALID,0,VALID,95.2237,VALID,0,VALID,23.5266,VALID,324,VALID,0.507422,
2012-01-20, 01:27:04,VALID,1000.96,VALID,0,VALID,95.2237,VALID,0,VALID,23.5266,VALID,339,VALID,0.910937,
2012-01-20, 01:28:04,VALID,1000.95,VALID,0,VALID,95.2161,VALID,0,VALID,23.5266,VALID,325,VALID,0.734375,
2012-01-20, 01:29:04,VALID,1000.97,VALID,0,VALID,95.2237,VALID,0,VALID,23.5266,VALID,346,VALID,1.18477,
2012-01-20, 01:30:04,VALID,1000.93,VALID,0,VALID,95.2389,VALID,0,VALID,23.5071,VALID,358,VALID,0.764844,
2012-01-20, 01:31:04,VALID,1000.93,VALID,0,VALID,95.2618,VALID,0,VALID,23.5071,VALID,351,VALID,0.839063,
2012-01-20, 01:32:04,VALID,1000.91,VALID,0,VALID,95.2847,VALID,0,VALID,23.5071,VALID,347,VALID,0.820703,
2012-01-20, 01:33:04,VALID,1000.89,VALID,0,VALID,95.2389,VALID,0.0815089,VALID,23.5071,VALID,321,VALID,1.02031,
2012-01-20, 01:34:04,VALID,1000.87,VALID,0,VALID,95.2923,VALID,0,VALID,23.5071,VALID,338,VALID,0.790625,
2012-01-20, 01:35:04,VALID,1000.91,VALID,0,VALID,95.2618,VALID,0.0815089,VALID,23.5071,VALID,308,VALID,0.713672,
2012-01-20, 01:36:04,VALID,1000.9,VALID,0,VALID,95.2542,VALID,0.0815089,VALID,23.5071,VALID,340,VALID,1.27656,
2012-01-20, 01:37:04,VALID,1000.88,VALID,0,VALID,95.2847,VALID,0,VALID,23.5071,VALID,293,VALID,0.756641,
2012-01-20, 01:38:04,VALID,1000.87,VALID,0,VALID,95.3,VALID,0,VALID,23.5266,VALID,314,VALID,0.596094,
2012-01-20, 01:39:04,VALID,1000.84,VALID,0,VALID,95.3152,VALID,0,VALID,23.5266,VALID,333,VALID,0.276172,
2012-01-20, 01:40:04,VALID,1000.84,VALID,0,VALID,95.2847,VALID,0,VALID,23.5248,VALID,287,VALID,1.53672,
2012-01-20, 01:41:04,VALID,1000.83,VALID,0,VALID,95.3,VALID,0,VALID,23.5266,VALID,360,VALID,0.366406,
2012-01-20, 01:42:04,VALID,1000.83,VALID,0,VALID,95.3152,VALID,0,VALID,23.5673,VALID,8,VALID,0.302344,
2012-01-20, 01:43:04,VALID,1000.81,VALID,0,VALID,95.2771,VALID,0.0815089,VALID,23.5266,VALID,294,VALID,1.48008,
2012-01-20, 01:44:04,VALID,1000.78,VALID,0,VALID,95.2618,VALID,0.0815089,VALID,23.5266,VALID,288,VALID,0.664453,
2012-01-20, 01:45:04,VALID,1000.82,VALID,0,VALID,95.3,VALID,0,VALID,23.5478,VALID,340,VALID,0.624609,
2012-01-20, 01:46:04,VALID,1000.83,VALID,0,VALID,95.2847,VALID,0,VALID,23.5478,VALID,297,VALID,1.54062,
2012-01-20, 01:47:04,VALID,1000.79,VALID,0,VALID,95.3152,VALID,0,VALID,23.5478,VALID,303,VALID,0.641797,
2012-01-20, 01:48:04,VALID,1000.79,VALID,0,VALID,95.3305,VALID,0,VALID,23.5673,VALID,268,VALID,1,
2012-01-20, 01:49:04,VALID,1000.82,VALID,0,VALID,95.3076,VALID,0,VALID,23.5673,VALID,305,VALID,0.991797,
2012-01-20, 01:50:04,VALID,1000.8,VALID,0,VALID,95.2542,VALID,0,VALID,23.5673,VALID,290,VALID,1.86484,
2012-01-20, 01:51:04,VALID,1000.8,VALID,0,VALID,95.2695,VALID,0,VALID,23.5478,VALID,345,VALID,0.315234,
2012-01-20, 01:52:04,VALID,1000.85,VALID,0,VALID,95.2618,VALID,0,VALID,23.5071,VALID,224,VALID,0.393359,
2012-01-20, 01:53:04,VALID,1000.86,VALID,0,VALID,95.2313,VALID,0,VALID,23.5284,VALID,285,VALID,0.964844,
2012-01-20, 01:54:04,VALID,1000.87,VALID,0,VALID,95.2389,VALID,0,VALID,23.5284,VALID,297,VALID,0.891016,
2012-01-20, 01:55:04,VALID,1000.88,VALID,0,VALID,95.2313,VALID,0,VALID,23.5478,VALID,268,VALID,0.671094,
2012-01-20, 01:56:04,VALID,1000.88,VALID,0,VALID,95.2542,VALID,0,VALID,23.5284,VALID,276,VALID,0.644141,
2012-01-20, 01:57:04,VALID,1000.9,VALID,0,VALID,95.2618,VALID,0,VALID,23.5071,VALID,276,VALID,0.426172,
2012-01-20, 01:58:04,VALID,1000.94,VALID,0,VALID,95.2389,VALID,0,VALID,23.5284,VALID,298,VALID,0.7875,
2012-01-20, 01:59:04,VALID,1000.93,VALID,0,VALID,95.2161,VALID,0,VALID,23.5071,VALID,274,VALID,1.2668,
2012-01-20, 02:00:04,VALID,1000.99,VALID,0,VALID,95.2084,VALID,0.0815089,VALID,23.5053,VALID,299,VALID,0.869922,
2012-01-20, 02:01:04,VALID,1000.93,VALID,0,VALID,95.2237,VALID,0.0815089,VALID,23.5036,VALID,307,VALID,0.646094,
2012-01-20, 02:02:04,VALID,1000.97,VALID,0,VALID,95.1855,VALID,0.0815089,VALID,23.4859,VALID,283,VALID,1.48281,
2012-01-20, 02:03:04,VALID,1001,VALID,0,VALID,95.1398,VALID,0.0815089,VALID,23.4859,VALID,296,VALID,1.34922,
2012-01-20, 02:04:04,VALID,1001.04,VALID,0,VALID,95.1474,VALID,0,VALID,23.4859,VALID,292,VALID,1.69219,
2012-01-20, 02:05:04,VALID,1001.1,VALID,0,VALID,95.1169,VALID,0.0815089,VALID,23.4859,VALID,285,VALID,2.22227,
2012-01-20, 02:06:04,VALID,1001.11,VALID,0,VALID,95.1321,VALID,0.0815089,VALID,23.5071,VALID,296,VALID,0.730078,
2012-01-20, 02:07:04,VALID,1001.12,VALID,0,VALID,95.0177,VALID,0.0815089,VALID,23.4877,VALID,287,VALID,2.30117,
2012-01-20, 02:08:04,VALID,1001.14,VALID,0,VALID,95.0101,VALID,0.0815089,VALID,23.4859,VALID,307,VALID,1.39805,
2012-01-20, 02:09:04,VALID,1001.15,VALID,0,VALID,94.9643,VALID,0.0815089,VALID,23.4859,VALID,296,VALID,1.18047,
2012-01-20, 02:10:04,VALID,1001.12,VALID,0,VALID,94.9567,VALID,0.0815089,VALID,23.4859,VALID,289,VALID,1.40117,
2012-01-20, 02:11:04,VALID,1001.13,VALID,0,VALID,94.888,VALID,0.0815089,VALID,23.5266,VALID,299,VALID,1.26914,
2012-01-20, 02:12:04,VALID,1001.14,VALID,0,VALID,94.888,VALID,0.0815089,VALID,23.5053,VALID,302,VALID,1.43906,
2012-01-20, 02:13:04,VALID,1001.13,VALID,0,VALID,94.8499,VALID,0.0815089,VALID,23.5053,VALID,282,VALID,1.46133,
2012-01-20, 02:14:04,VALID,1001.13,VALID,0,VALID,94.8117,VALID,0.0815089,VALID,23.5248,VALID,289,VALID,1.42695,
2012-01-20, 02:15:04,VALID,1001.11,VALID,0,VALID,94.8346,VALID,0,VALID,23.5478,VALID,276,VALID,0.833203,
2012-01-20, 02:16:04,VALID,1001.11,VALID,0,VALID,94.7888,VALID,0,VALID,23.5673,VALID,291,VALID,1.12812,
2012-01-20, 02:17:04,VALID,1001.13,VALID,0,VALID,94.7125,VALID,0,VALID,23.5266,VALID,310,VALID,1.40625,
2012-01-20, 02:18:04,VALID,1001.13,VALID,0,VALID,94.5752,VALID,0,VALID,23.546,VALID,298,VALID,1.59492,
2012-01-20, 02:19:04,VALID,1001.11,VALID,0,VALID,94.6057,VALID,0,VALID,23.5868,VALID,285,VALID,1.13008,
2012-01-20, 02:20:04,VALID,1001.1,VALID,0,VALID,94.621,VALID,0,VALID,23.5655,VALID,300,VALID,0.936719,
2012-01-20, 02:21:04,VALID,1001.15,VALID,0,VALID,94.6515,VALID,0,VALID,23.5673,VALID,282,VALID,0.7,
2012-01-20, 02:22:04,VALID,1001.14,VALID,0,VALID,94.6057,VALID,0,VALID,23.5478,VALID,303,VALID,0.658984,
2012-01-20, 02:23:04,VALID,1001.12,VALID,0,VALID,94.6363,VALID,0,VALID,23.546,VALID,334,VALID,0.853906,
2012-01-20, 02:24:04,VALID,1001.14,VALID,0,VALID,94.6744,VALID,0,VALID,23.5673,VALID,269,VALID,0.767969,
2012-01-20, 02:25:04,VALID,1001.12,VALID,0,VALID,94.5981,VALID,0,VALID,23.546,VALID,295,VALID,1.3043,
2012-01-20, 02:26:04,VALID,1001.13,VALID,0.5,VALID,94.6591,VALID,0,VALID,23.5655,VALID,281,VALID,0.980859,
2012-01-20, 02:27:04,VALID,1001.1,VALID,0,VALID,94.5752,VALID,0,VALID,23.5655,VALID,284,VALID,1.77539,
2012-01-20, 02:28:04,VALID,1001.1,VALID,0,VALID,94.6515,VALID,0,VALID,23.546,VALID,301,VALID,0.978906,
2012-01-20, 02:29:04,VALID,1001.11,VALID,0,VALID,94.6515,VALID,0,VALID,23.5655,VALID,335,VALID,1.00391,
2012-01-20, 02:30:04,VALID,1001.07,VALID,0,VALID,94.6515,VALID,0.0815089,VALID,23.5637,VALID,295,VALID,1.47227,
2012-01-20, 02:31:04,VALID,1001.05,VALID,0,VALID,94.6515,VALID,0.0815089,VALID,23.5637,VALID,313,VALID,1.2082,
2012-01-20, 02:32:04,VALID,1001.05,VALID,0,VALID,94.7049,VALID,0.0815089,VALID,23.585,VALID,250,VALID,0.588672,
2012-01-20, 02:33:04,VALID,1001.04,VALID,0,VALID,94.6897,VALID,0.0815089,VALID,23.5637,VALID,263,VALID,1.05938,
2012-01-20, 02:34:04,VALID,1001.04,VALID,0,VALID,94.6973,VALID,0.0815089,VALID,23.5655,VALID,313,VALID,0.334766,
2012-01-20, 02:35:04,VALID,1001.06,VALID,0,VALID,94.6286,VALID,0.0815089,VALID,23.5443,VALID,286,VALID,1.49609,
2012-01-20, 02:36:04,VALID,1001.02,VALID,0,VALID,94.6439,VALID,0.0815089,VALID,23.5637,VALID,319,VALID,0.989453,
2012-01-20, 02:37:04,VALID,1000.96,VALID,0,VALID,94.6744,VALID,0,VALID,23.5443,VALID,311,VALID,0.903516,
2012-01-20, 02:38:04,VALID,1000.95,VALID,0,VALID,94.621,VALID,0,VALID,23.5443,VALID,296,VALID,2.24648,
2012-01-20, 02:39:04,VALID,1000.9,VALID,0,VALID,94.6134,VALID,0.0815089,VALID,23.5443,VALID,291,VALID,2.15156,
2012-01-20, 02:40:04,VALID,1000.9,VALID,0,VALID,94.6286,VALID,0.0815089,VALID,23.5443,VALID,299,VALID,0.907422,
2012-01-20, 02:41:04,VALID,1000.88,VALID,0,VALID,94.6744,VALID,0.0815089,VALID,23.5443,VALID,293,VALID,0.985937,
2012-01-20, 02:42:04,VALID,1000.83,VALID,0,VALID,94.5752,VALID,0.0815089,VALID,23.546,VALID,355,VALID,2.19141,
2012-01-20, 02:43:04,VALID,1000.82,VALID,0,VALID,94.6439,VALID,0.0815089,VALID,23.5655,VALID,296,VALID,0.608594,
2012-01-20, 02:44:04,VALID,1000.83,VALID,0,VALID,94.7125,VALID,0.0815089,VALID,23.5832,VALID,4,VALID,0.282422,
2012-01-20, 02:45:04,VALID,1000.76,VALID,0,VALID,94.6515,VALID,0.0815089,VALID,23.5832,VALID,297,VALID,0.886328,
2012-01-20, 02:46:04,VALID,1000.77,VALID,0,VALID,94.6134,VALID,0.0815089,VALID,23.585,VALID,292,VALID,1.21523,
2012-01-20, 02:47:04,VALID,1000.79,VALID,0,VALID,94.6668,VALID,0.163018,VALID,23.585,VALID,301,VALID,1.09961,
2012-01-20, 02:48:04,VALID,1000.74,VALID,0,VALID,94.56,VALID,0.0815089,VALID,23.5443,VALID,286,VALID,2.14727,
2012-01-20, 02:49:04,VALID,1000.75,VALID,0,VALID,94.5218,VALID,0.0815089,VALID,23.5655,VALID,307,VALID,0.821484,
2012-01-20, 02:50:04,VALID,1000.73,VALID,0,VALID,94.4913,VALID,0.0815089,VALID,23.5443,VALID,333,VALID,1.42266,
2012-01-20, 02:51:04,VALID,1000.73,VALID,0,VALID,94.4989,VALID,0.0815089,VALID,23.5443,VALID,284,VALID,1.74258,
2012-01-20, 02:52:04,VALID,1000.72,VALID,0,VALID,94.4989,VALID,0.0815089,VALID,23.585,VALID,307,VALID,1.09844,
2012-01-20, 02:53:04,VALID,1000.69,VALID,0,VALID,94.4532,VALID,0,VALID,23.5655,VALID,282,VALID,1.28281,
2012-01-20, 02:54:04,VALID,1000.69,VALID,0,VALID,94.4913,VALID,0.0815089,VALID,23.5832,VALID,301,VALID,1.22148,
2012-01-20, 02:55:04,VALID,1000.65,VALID,0,VALID,94.4761,VALID,0.0815089,VALID,23.5637,VALID,285,VALID,1.91914,
2012-01-20, 02:56:04,VALID,1000.61,VALID,0,VALID,94.4684,VALID,0.0815089,VALID,23.5248,VALID,293,VALID,1.26719,
2012-01-20, 02:57:04,VALID,1000.58,VALID,0,VALID,94.4608,VALID,0.0815089,VALID,23.5443,VALID,293,VALID,1.6332,
2012-01-20, 02:58:04,VALID,1000.53,VALID,0,VALID,94.4532,VALID,0.0815089,VALID,23.5443,VALID,319,VALID,0.667969,
2012-01-20, 02:59:04,VALID,1000.49,VALID,0,VALID,94.5142,VALID,0.0815089,VALID,23.5443,VALID,282,VALID,0.628516,
2012-01-20, 03:00:04,VALID,1000.48,VALID,0,VALID,94.415,VALID,0,VALID,23.546,VALID,281,VALID,2.05117,
2012-01-20, 03:01:04,VALID,1000.48,VALID,0,VALID,94.3769,VALID,0,VALID,23.546,VALID,287,VALID,1.8293,
2012-01-20, 03:02:04,VALID,1000.46,VALID,0,VALID,94.3464,VALID,0,VALID,23.5655,VALID,280,VALID,2.42422,
2012-01-20, 03:03:04,VALID,1000.49,VALID,0,VALID,94.4074,VALID,0.0815089,VALID,23.5832,VALID,298,VALID,0.744141,
2012-01-20, 03:04:04,VALID,1000.48,VALID,0,VALID,94.3921,VALID,0,VALID,23.6044,VALID,305,VALID,0.635156,
2012-01-20, 03:05:04,VALID,1000.48,VALID,0,VALID,94.3692,VALID,0,VALID,23.5637,VALID,286,VALID,0.985156,
2012-01-20, 03:06:04,VALID,1000.44,VALID,0,VALID,94.3692,VALID,0,VALID,23.6044,VALID,310,VALID,1.42383,
2012-01-20, 03:07:04,VALID,1000.41,VALID,0,VALID,94.354,VALID,0,VALID,23.6044,VALID,299,VALID,1.36484,
2012-01-20, 03:08:04,VALID,1000.42,VALID,0,VALID,94.3845,VALID,0,VALID,23.6239,VALID,285,VALID,0.823438,
2012-01-20, 03:09:04,VALID,1000.41,VALID,0,VALID,94.4227,VALID,0,VALID,23.6026,VALID,287,VALID,0.418359,
2012-01-20, 03:10:04,VALID,1000.4,VALID,0,VALID,94.4913,VALID,0,VALID,23.6646,VALID,347,VALID,0.385547,
2012-01-20, 03:11:04,VALID,1000.44,VALID,0,VALID,94.4303,VALID,0,VALID,23.6646,VALID,331,VALID,0.891406,
2012-01-20, 03:12:04,VALID,1000.39,VALID,0,VALID,94.4532,VALID,0.0815089,VALID,23.6434,VALID,311,VALID,1.03594,
2012-01-20, 03:13:04,VALID,1000.39,VALID,0,VALID,94.4074,VALID,0,VALID,23.6434,VALID,293,VALID,1.07656,
2012-01-20, 03:14:04,VALID,1000.37,VALID,0,VALID,94.4532,VALID,0,VALID,23.6434,VALID,287,VALID,1.11563,
2012-01-20, 03:15:04,VALID,1000.34,VALID,0,VALID,94.3845,VALID,0,VALID,23.6257,VALID,302,VALID,1.09102,
2012-01-20, 03:16:04,VALID,1000.38,VALID,0,VALID,94.4532,VALID,0,VALID,23.6239,VALID,291,VALID,0.323438,
2012-01-20, 03:17:04,VALID,1000.33,VALID,0,VALID,94.3616,VALID,0,VALID,23.6239,VALID,283,VALID,1.81055,
2012-01-20, 03:18:04,VALID,1000.37,VALID,0,VALID,94.3998,VALID,0,VALID,23.6239,VALID,295,VALID,0.539453,
2012-01-20, 03:19:04,VALID,1000.36,VALID,0,VALID,94.4074,VALID,0,VALID,23.6044,VALID,292,VALID,1.21836,
2012-01-20, 03:20:04,VALID,1000.34,VALID,0,VALID,94.4455,VALID,0,VALID,23.6257,VALID,263,VALID,0.978125,
2012-01-20, 03:21:04,VALID,1000.32,VALID,0,VALID,94.4608,VALID,0,VALID,23.6646,VALID,294,VALID,0.863281,
2012-01-20, 03:22:04,VALID,1000.3,VALID,0,VALID,94.415,VALID,0,VALID,23.6452,VALID,290,VALID,1.44844,
2012-01-20, 03:23:04,VALID,1000.29,VALID,0,VALID,94.3311,VALID,0,VALID,23.6257,VALID,281,VALID,1.6918,
2012-01-20, 03:24:04,VALID,1000.31,VALID,0,VALID,94.4074,VALID,0,VALID,23.6044,VALID,278,VALID,0.751953,
2012-01-20, 03:25:04,VALID,1000.26,VALID,0,VALID,94.3387,VALID,0,VALID,23.6044,VALID,292,VALID,1.65508,
2012-01-20, 03:26:04,VALID,1000.23,VALID,0,VALID,94.2701,VALID,0,VALID,23.6044,VALID,273,VALID,1.39883,
2012-01-20, 03:27:04,VALID,1000.26,VALID,0,VALID,94.2167,VALID,0,VALID,23.6062,VALID,294,VALID,0.955859,
2012-01-20, 03:28:04,VALID,1000.21,VALID,0,VALID,94.0488,VALID,0,VALID,23.5655,VALID,288,VALID,2.01797,
2012-01-20, 03:29:04,VALID,1000.24,VALID,0,VALID,94.1022,VALID,0,VALID,23.5655,VALID,307,VALID,1.05234,
2012-01-20, 03:30:04,VALID,1000.22,VALID,0,VALID,94.1633,VALID,0,VALID,23.5832,VALID,292,VALID,0.893359,
2012-01-20, 03:31:04,VALID,1000.17,VALID,0,VALID,93.9191,VALID,0,VALID,23.546,VALID,289,VALID,1.91602,
2012-01-20, 03:32:04,VALID,1000.19,VALID,0,VALID,93.9344,VALID,0,VALID,23.5655,VALID,300,VALID,1.48359,
2012-01-20, 03:33:04,VALID,1000.23,VALID,0,VALID,94.0259,VALID,0,VALID,23.546,VALID,277,VALID,1.95547,
2012-01-20, 03:34:04,VALID,1000.2,VALID,0,VALID,93.9802,VALID,0.0815089,VALID,23.5248,VALID,300,VALID,1.44258,
2012-01-20, 03:35:04,VALID,1000.26,VALID,0,VALID,93.9039,VALID,0,VALID,23.5266,VALID,300,VALID,1.42461,
2012-01-20, 03:36:04,VALID,1000.22,VALID,0,VALID,93.9268,VALID,0,VALID,23.546,VALID,281,VALID,1.04766,
2012-01-20, 03:37:04,VALID,1000.24,VALID,0,VALID,93.7742,VALID,0,VALID,23.4859,VALID,333,VALID,1.13047,
2012-01-20, 03:38:04,VALID,1000.23,VALID,0,VALID,93.7361,VALID,0,VALID,23.4664,VALID,327,VALID,1.21289,
2012-01-20, 03:39:04,VALID,1000.26,VALID,0,VALID,93.7818,VALID,0,VALID,23.4682,VALID,295,VALID,1.26875,
2012-01-20, 03:40:04,VALID,1000.22,VALID,0,VALID,93.5606,VALID,0,VALID,23.4487,VALID,306,VALID,2.24531,